{"data":{"norad_id":41917,"intl_designator":"2017-003A","name":"IRIDIUM 106","alt_names":[],"object_type":"PAYLOAD","status":"ACTIVE","operator":null,"country":"US","launch_date":"2017-01-14","launch_site_code":"AFWTR","launch_vehicle":null,"mission":null,"orbit_class":"UNKNOWN","rcs_meters":2.8038,"size_class":null,"mass_kg":null,"dimensions":null,"purposes":["comms"],"wikipedia_slug":null,"has_3d_model":false,"image_url":null,"decayed_at":null,"tle_current":{"epoch":"2026-09-20T02:53:06.410112Z","epoch_age_seconds":48369,"freshness":"FRESH","line1":"1 41917U 17003A   26263.12021308  .00000097  00000+0  27422-4 0  9995","line2":"2 41917  86.3949  48.8335 0001847  86.5950 273.5457 14.34216892506810","mean_motion":14.34216892,"eccentricity":0.0001847,"inclination_deg":86.3949,"raan_deg":48.8335,"arg_perigee_deg":86.595,"mean_anomaly_deg":273.5457,"bstar":2.7422e-5,"rev_number":50681,"period_min":100.40322408921,"perigee_km":776.34833070462,"apogee_km":778.99168581347,"semimajor_km":7155.807008259,"source":"CELESTRAK","updated_at":"2026-09-20T09:00:36.319422Z"}}}